FENGYUN 1C DEB

Satellite information

Favourite Embed

Satellite Type and Status

DEBRISIN ORBIT

Key statistics

Satellite FENGYUN 1C DEB at a glance.

Uptime

9555

Days in orbit

Revolutions

≈ 14.1

Per day

Orbit

SSO

Sun Synchronous Orbit

Inclination

102.8

Latest

Satellite identification and parameters

Extended collection of information and parameters for FENGYUN 1C DEB.

Object identification

Identified? True

Debris? True

Object name: FENGYUN 1C DEB

International designator: 1999-025CBE

Object number (NORAD): 31648

Object ID (CCSDS): 31648

Country: PEOPLES REPUBLIC OF CHINA (PRC)

Current information (Y/N): Y

RCS size: SMALL

Orbital parameters

Period: 101.87 minutes

Inclination: 102.7929 deg

SMA: 7225.327 km

Apoapsis: 884.663 km

Periapsis: 809.722 km

RAAN: 294.2789 deg

Eccentricy: 0.005186

Argument of periapsis: 194.2833 deg

Mean anomaly: 165.686 deg

Mean motion: 14.13567205 rev/day

Mean motion (dot): 0.00003926 rev/day2

B* drag term: 0.0020961 1/REarth

Two-line elements (TLE)

Creation date: July 3, 2025, 2:56 p.m.

Reference frame: TEME

Reference center: EARTH

Epoch: June 30, 2025, 12:45 p.m. UTC

TLE line 0: 0 FENGYUN 1C DEB

TLE line 1: 1 31648U 99025CBE 25181.53170461 .00003926 00000-0 20961-2 0 9991

TLE line 2: 2 31648 102.7929 294.2789 0051860 194.2833 165.6860 14.13567205923522

Live tracking on map

Real-time ground track for satellite FENGYUN 1C DEB.

In-orbit conjunctions

A list of the most updated potential collisions computed for object FENGYUN 1C DEB.

Target Orbit TCA Probability of collision Miss distance Type
COSMOS 2082 LEO 2024-12-11 22:26:13 0.0001293994 460.0 (m) PAYLOAD

Associated space launch

Chinese polar orbiting meteorological satellite

FENGYUN 1C DEB was lifted into orbit during the mission ‘Long March 4B | Feng Yun 1C’, on board a Long March 4B space rocket.

The launch took place on May 10, 1999, 1:33 a.m. from Launch Complex 7.

For more information about the launch, click the button.

Launch to space Long March 4B | Feng Yun 1C
Long March 4B | Feng Yun 1C

Agency: N/A

Status: Launch Successful

Launch date: May 10, 1999, 1:33 a.m. UTC

Rocket: Long March 4B

Launch pad: Launch Complex 7

Location: Taiyuan Satellite Launch Center, People's Republic of China

...

Latest news about this satellite

There are no fresh news available about this satellite. Check back as we update our databases every day.


Newsletter sign-up

Weekly statistics, charts and insights to help you stay on top of the space industry.